User: anonymous   Login
Location: Unspecified
(0.0000°N, 0.0000°E)
Time: 05:16:38
(UTC+00:00)
Language:

Feng Yun - Orbit

View from above orbital plane
View from above orbital plane
View from above satellite
View from above satellite

Ground track
Ground track

The orbit data is extracted from the following two-line orbital elements,

1 24834U 97029A   19083.45869145 -.00000098  00000-0  00000+0 0  9998
2 24834  14.2503  25.1623 0096445 175.9027  46.3178  0.96050492 78016
Epoch (UTC): 24 March 2019 11:00:30
Eccentricity: 0.0096445
inclination: 14.2503°
perigee height: 36594 km
apogee height: 37431 km
right ascension of ascending node: 25.1623°
argument of perigee: 175.9027°
revolutions per day: 0.96050492
mean anomaly at epoch: 46.3178°
orbit number at epoch: 7801

The dashed part of the orbit path shows where the satellite is in the earth's shadow,  

DLR